sat.trackr.live / text

‹ back to catalog

STARLINK-34847

NORAD 65211 · 2025-176P

PAYLOAD ACTIVE UNKNOWN

§ Identity

Operator
Country
US
Launch date
2025-08-14
Launch site
AFETR
Launch vehicle
Mass (kg)
RCS (m²)

Purposes: comms

External: N2YO · Heavens-Above · Gunter

§ Orbital elements

Epoch: 2026-09-20T09:15:14.023872Z

Period
93.85 min
Inclination
53.1600°
Eccentricity
0.0001089
Mean motion
15.34403652 rev/d
Perigee alt
461.9 km
Apogee alt
463.4 km
Semi-major
6,840.8 km
B*
2.6780e-4
RAAN
325.9510°
Arg perigee
79.4700°
Mean anomaly
280.6425°
Rev number
6,296

§ Raw data

STARLINK-348471 65211U 25176P   26263.38557898  .00008683  00000+0  26780-3 0  99982 65211  53.1600 325.9510 0001089  79.4700 280.6425 15.34403652 62965

JSON: /api/v1/satellites/65211 · /tle

For live sub-satellite position, see the globe view (requires WebGL).

§ Visibility from observer

Set your observer location to see the next 7 days of passes ≥ 10°. The values pass through the URL so the page stays shareable.

No JS? Fill the form by hand. The geolocation button needs JavaScript.